Glendale Luke AFB, AZ

8:26 PM MST on December 14, 2019 (GMT -0700)
Luke Air Force Base

Weather History for KLUF - November, 2019

Change the Weather History Date:

Sunday, November 17, 2019

  Actual Average Record
Temperature  
Mean Temperature 66 °F -  
Max Temperature 83 °F 74 °F 86 °F (1949)
Min Temperature 49 °F 42 °F 28 °F (1958)
Cooling Degree Days 1    
Growing Degree Days 16 (Base 50)    
Moisture  
Dew Point 32 °F    
Average Humidity 35    
Maximum Humidity 59    
Minimum Humidity 12    
Precipitation  
Precipitation 0.00 in - - ()
Sea Level Pressure  
Sea Level Pressure 29.97 in    
Wind  
Wind Speed 5 mph (North)    
Max Wind Speed 9 mph    
Max Gust Speed -    
Visibility 9 miles    
Events      
Averages and records for this station are not official NWS values.
T = Trace of Precipitation, MM = Missing Value Source: NWS Daily Summary

Daily Weather History Graph

Daily Weather History Graph

Search for Another Location

Airport or City:

Astronomy

Nov. 17, 2019 Rise Set
Actual Time 7:02 AM MST 5:25 PM MST
Civil Twilight 6:36 AM MST 5:52 PM MST
Nautical Twilight 6:06 AM MST 6:22 PM MST
Astronomical Twilight 5:36 AM MST 6:51 PM MST
Moon 10:09 PM MST (11/17) 11:47 AM MST (11/17)
Length of Visible Light 11h 15m
Length of Day
10h 22m
Waning Gibbous, 73% of the Moon is Illuminated
Nov 17
Waning Gibbous
Nov 19
Last Quarter
Nov 26
New
Dec 3
First Quarter
Dec 11
Full

Hourly Weather History & Observations

Time (MST) Temp. Dew Point Humidity Pressure Visibility Wind Dir Wind Speed Gust Speed Precip Events Conditions
12:58 AM 55.6 °F 37.2 °F 50% 29.95 in 10.0 mi NE 6.9 mph - N/A   Clear
1:58 AM 54.7 °F 33.8 °F 45% 29.95 in 10.0 mi North 5.8 mph - N/A   Clear
2:58 AM 54.5 °F 35.2 °F 48% 29.95 in 10.0 mi NNE 3.5 mph - N/A   Clear
3:58 AM 53.4 °F 36.3 °F 52% 29.96 in 10.0 mi NNE 4.6 mph - N/A   Clear
4:28 AM 51.8 °F 35.6 °F 54% 29.97 in 3.0 mi North 4.6 mph - N/A   Haze
4:58 AM 51.8 °F 34.7 °F 52% 29.98 in 9.0 mi Calm Calm - N/A   Clear
5:58 AM 51.3 °F 35.2 °F 54% 29.98 in 5.0 mi North 4.6 mph - N/A   Haze
6:08 AM 51.8 °F 33.8 °F 50% 29.98 in 4.0 mi North 3.5 mph - N/A   Haze
6:18 AM 50.0 °F 33.8 °F 54% 29.98 in 10.0 mi North 4.6 mph - N/A   Clear
6:58 AM 49.6 °F 36.0 °F 59% 30.00 in 8.0 mi NNE 3.5 mph - N/A   Clear
7:58 AM 51.6 °F 35.6 °F 54% 30.02 in 8.0 mi North 3.5 mph - N/A   Clear
8:56 AM 60.3 °F 37.8 °F 43% 30.02 in 10.0 mi NNE 3.5 mph - N/A   Clear
9:56 AM 65.7 °F 34.2 °F 31% 30.03 in 10.0 mi Calm Calm - N/A   Clear
10:56 AM 71.2 °F 34.5 °F 26% 30.01 in 10.0 mi South 4.6 mph - N/A   Clear
11:56 AM 75.4 °F 32.7 °F 21% 30.00 in 10.0 mi South 5.8 mph - N/A   Clear
12:58 PM 80.1 °F 28.2 °F 15% 29.97 in 10.0 mi South 5.8 mph - N/A   Clear
1:58 PM 81.5 °F 25.9 °F 13% 29.95 in 10.0 mi Calm Calm - N/A   Clear
2:58 PM 82.8 °F 27.0 °F 13% 29.93 in 10.0 mi North 6.9 mph - N/A   Clear
3:58 PM 83.5 °F 25.5 °F 12% 29.92 in 10.0 mi North 3.5 mph - N/A   Clear
4:58 PM 82.0 °F 29.8 °F 15% 29.92 in 10.0 mi NNW 3.5 mph - N/A   Clear
5:58 PM 73.6 °F 31.3 °F 21% 29.93 in 9.0 mi NNW 4.6 mph - N/A   Clear
6:58 PM 65.8 °F 31.8 °F 28% 29.94 in 8.0 mi WNW 5.8 mph - N/A   Clear
7:58 PM 62.4 °F 32.9 °F 33% 29.94 in 10.0 mi NNW 3.5 mph - N/A   Clear
8:58 PM 61.5 °F 28.0 °F 28% 29.97 in 10.0 mi NNW 9.2 mph - N/A   Clear
9:58 PM 65.8 °F 25.9 °F 22% 29.96 in 10.0 mi NNE 4.6 mph - N/A   Clear
10:58 PM 60.1 °F 27.7 °F 29% 29.97 in 10.0 mi North 9.2 mph - N/A   Clear
11:58 PM 59.0 °F 26.8 °F 29% 29.94 in 10.0 mi North 8.1 mph - N/A   Clear